7 * 24
多渠道服务支持
TIANMU-1 03 是一颗由中国研制的遥感卫星,主要用于地球观测和空间科学实验。该卫星具备高分辨率成像能力,能够获取地表详细信息,服务于环境监测、资源调查和灾害预警等领域。其发射进一步完善了我国在轨遥感卫星体系,提升了对地观测数据的获取能力和应用水平。
中国
(CN)
| 数据来源 | 国际轨道数据 |
| 星历时间: | 2025-10-28T23:53:49+0800 15小时前 查看轨道信息 |
| 半长轴: | 6826.965km |
| 偏心率: | 0.0003196 |
| 轨道倾角: | 97.512° |
| 近地点辐角 | 201.093° |
| 升交点赤经 | 103.121° |
| 平近点角 | 159.018° |
| 近地点: | 446.648km |
| 远地点: | 451.012km |
| 周期: | 93.562分钟 |
| 每日圈数: | 15.390803 |